"Pseudo-MPEC" for P21vu4h

Created 2022 Aug 15 21:22:22 UT using Find_Orb

Click here for an explanation of pseudo-MPECs

 
 Astrometry: 
     P21vu4h  C2014 06 24sYljR]dldP\hmr[WY9eyR`*!eBy.XLh$ptaZfe#HAstrometrygpF51
     P21vu4h  C2014 06 24@'TtsrLZ(yD[.V-PZ$Jv8kWnJxE!yystLkF`G(`FcHqx7OgAmCy;F51
     P21vu4h  C2014 06 24mw3lR3ELarqaX?jreS@A$2SuSOhvN*D%q62*\^ET/-fNw_m*%i/xF51
     P21vu4h  C2019 06 28Us/k;+?yOyqf1UI!0X.va_[Ti;wxmS;fb,[G[QY,qjasmb)KJ%2/F51
     P21vu4h  C2019 06 28;AyVQIqli3SJ[3_flk]6SV)o_T@A)Yb(iZlR[e3`FyflE#(xY1GrF51
     P21vu4h  C2019 06 28@A7aKJ#-:)A,[B!5\U65v(Zye2YPZ+JUBeGhharcG-eCbUYEI:')F51
     P21vu4h  C2019 06 289lLwPXG+T3f!!.Mq5];wlOo7x/'#ew)bM;c3JvyKR-BYX:noUFa*F51
     P21vu4h  C2019 07 06;R\Kqd(6;exi'aVQ8UVjR#tlrjr+`3^C8/-@EH,Ckg^GrvVN@L[DF51
     P21vu4h  C2019 07 06GMpk)hvj!Z3:it44Bt1hapiYFFbArCesJ5dT#aDXu1L?+aS'5?owF51
     P21vu4h  C2019 07 06i_05_L01ou+tdoNA0L,]KBAXIWQs.@Xr0qE@(np3hZ]pGvVS3\XUF51
     P21vu4h  C2020 05 28$k%5BxC=0;'[:Gc/qQQRh.5RdCfUAXmCRj:b`ACBacnloFZq.IILF51
     P21vu4h  C2020 05 28FiL1_eRyCm)4$]1?G%1p%EAgnj9;4?qy$sd1M(T@c7/gtt,uyqkXF51
     P21vu4h  C2020 05 282EdW^YkWPj\$.m+7!K84Af.'bax-?ntdXQlvZB@Nc+?d1?E:B.A*F51
     P21vu4h  C2020 05 28osl5gfyqlG\hgRCo;Ni%_.[_##mDbbTw_tQ9k-_8CNYuK(6yqo9ZF51
     P21vu4h  C2020 06 15PR]SE';ayI99CjR4Qlt@9oEB_D9T7M*i07hl-PEVC^T3khd]I8WbF51
     P21vu4h  C2020 06 15-*Fxl%^[6O$\\.'mredacted;Q@G1i(H8@Y!'[_M57''=e=-:AiQF51
     P21vu4h  C2020 06 15)pDZ6Ex!4Z#MT\([qAb-YihP.+]LS/vQC3vAh1!l8U(@j;,-tuu$F51
     P21vu4h  C2020 06 15][a`;g9KdEnQAj?,EeD!nEn4RUb'*geeNK[`Zc.1_x*kDpjybx2PF51
     P21vu4h  C2020 06 16PA92Kwk.L$@f^^towsBqJfph)nTYyur1xbE-dK1^7Jvclick2?s_F51
     P21vu4h  C2020 06 16sVC\Leet?EMn=^opn#d@h#WlSC2'(_C^]YdHE9hjf6aK_W%T4jtWF51
     P21vu4h  C2020 06 16G+I)5'1u$JX^h]'HMn_hsDFxx4BLkC2;D;*%%^P7v?YF@`n%Ng$tF51
     P21vu4h  C2020 06 20@V/b]T,oI*0TcjY!Aqw`i0`/pUiEvGsp#\3`ks/:#sn@d(B+ysEBF51
     P21vu4h  C2020 06 20*_+TnNSku';S=Nm.G#I$vqE`yAERnjtx*Z-x.`C*g_7+3*95-9*4F51
     P21vu4h  C2020 06 208D33j@(4:ZrNgq]N:AoyXgbnJd;TR.RfAv`IeT*])qTfyI-o?oi'F51
     P21vu4h  C2020 06 20=EQ(;_ZIljh::-oxkxoydoKd%j3HK+nWg/p!XbV+pp8en]cd7'39F51
     P21vu4h  C2020 06 28RQrvdAHI5Y6xO80ln2Q)C*Q[G;rO(e[Y^XD%Zmnm^FvvVhDBsb%=F51
     P21vu4h  C2020 06 28FWxHLpwU524sD2x$ZFKlHnjlEd.J'/[YW.OT=d@Q8ejCR7oJ]qr`F51
     P21vu4h  C2020 06 28ad+KL/,[Ee8-nFJ3AUK,s;O%,DOj;GPWe5(8xiMwT@*#@T6a0am]F51
     P21vu4h  C2020 06 28Vwccu8-k:7H%L*q$sE(?`+_;A!K\nb8kKUgbXXyZ7%d/^8.:@'%fF51
     P21vu4h  C2020 06 30;FA@\6)N[.*F4^FnP%Y_cqG#kNXpnsp6nRQa_df1R$1GT6ZmT+n1F51
     P21vu4h  C2020 07 12vviFk=[1H;b(V!mtAX'FCNT3bHgmSCmBi89+sJShf[Dh(s/:/](dF51
     P21vu4h  C2020 07 12qjf^]\7O4ogMT:Ra(v',%p?%W(CNr/2/l$iAl8csl#K-,j)3Pbg\F51
     P21vu4h  C2020 07 21gZ9I#gu3S^Y1MTWe=Q1Ar'F!nw[QH1mK54g^5Sei0Paa;(3cdhW;F51
     P21vu4h  C2020 07 21,8m`:$SemA?I/#^h(LrihgK,T4pBk2))YCw]Q+r[T'^mCuJR8?CDF51
     P21vu4h  C2020 07 21MWnIZR_9v\QMx\EYj'q7$Q2()*@M)^3R`m+Ea[[8b3NaFh=VGHBOF51
     P21vu4h KC2020 08 09+'JaThj9UCSINS0c4KP2HHU@$h!+t(U[6DL)yo7wjf`XheZrw)ARF51
     P21vu4h  C2020 08 09Iy.kT:e6I!Mm'0GPG#M7DgJfR*_)gZ6j3D\h8!$bV+/]03=h:/2'F51
     P21vu4h  C2020 08 14Yx3=7=+KSO_Q1Mjg+,C7;[-nJncYjlXX0Juou(DZY0a#Qm/N^%/kF51
     P21vu4h  C2020 08 14+XoyAOYeukC+;rTky%4cg7:4GhrLR=1020+;Cp74nB*@wOAPT/9uF51
     P21vu4h  C2020 08 14F-/Gu[sMx^71HBLkm=Z;:d[7mVAGe4wfA`3pBaDtE5+nX29%Os@iF51
     P21vu4h  C2020 08 147UZ*fURQi)=di+[1lY`7nE_Wy+ar%*05?n!t,)$(s/=^!vDlkjRKF51
     P21vu4h  C2020 08 15!Q1#6Gg%@\n6g2@komT2QU/v!T@S%u^68'9],Y?gM0T:Py/CSuNbF51
     P21vu4h  C2021 06 06*$c8Dqr@/bX%iKcP*\q1l%Kv$4?10HMnLj-q;Yk%A#*eNG;2*fCPF51
     P21vu4h  C2021 07 08koMI)F4mnabAQIlG(]LI:04hX)bow8`F?c*fwwZ^_UjbGkj^=nxMF51
     P21vu4h  C2021 07 08\f_f@G5:PdY9nE7FZO_5sH7lu[`tcw:=5JR-\qQv@wg@1p%DM7b@F51
     P21vu4h  C2021 07 08gxZa;WU=tjA'w_cI79ChcSQhSupE7625JM*((HVMi]$O!M@:Jbu3F51
     P21vu4h  C2021 08 06;VnUL9lb%\2Rfn54KbXbfa=n'2i-R*g.RB4F4vKJbX7Wm%\/]xODF51
     P21vu4h  C2021 08 06C%(H5H,V0_xD_f@d7\B(mi-)RE((Cx%IuKoCXKSq#wViq@Z.c!,JF51
     P21vu4h  C2021 08 06+_IgAleoEvA:?S?MJB$ePFF^cb_JfD/i1*\P*+u5Y.']P_c5ds'XF51
     P21vu4h  C2021 08 143QyW`hCD$sOdo/j^c$mjawPKm?ic9pBA7cZah.6RWEv;cbSb:]g-F51
     P21vu4h  C2021 08 14#0Kpmv\hgy+H`s0v%gu\^VElr9)_F`IqV*,f`telvK?,GyswUU51F51
     P21vu4h  C2021 08 14T[*meCn%m?6w8B=xp)DFTRVq%-L5B7i$A7C?_Hf$^=p[ZoQcmxreF51
     P21vu4h  C2021 08 14*N\d[.yWFB5AYX:r'Zw?wm2,Od^GOBOf,dt+vtN1paj0ZKk1jBXEF51
     P21vu4h  C2021 09 07TO+^9i+Be5.rS]WOhere1+a'G+l[V7FY$yhS*LlM1i9QeT4B](D'F51
     P21vu4h  C2021 09 07))Md_d0:xhm@BxFh%1Wr2/]@w#w.Y7+`UE%?9#-,wO^CrdT)\@l@F51
     P21vu4h  C2021 09 07`Dub@TS%o.JtMcQ4JN.K6r%?/Ff),0)J+ED:xJ/,N]3l4Ge$gUwlF51
     P21vu4h  C2021 09 10O`l;iSKLWVqJoYU.h*ipF/ugLZm2bUY3'7DxmnGM([xD\]g,)v'qF51
     P21vu4h  C2021 09 10oS+b?eKtE8!66S]_0gVk?'h4`o13IvB[!=9rp*LSi=0]/O]j,%XlF51
     P21vu4h  C2021 09 10DN#WQs-sT.j5c+,i9OoV_,?hDdtIB@mpw%!Jfu%u?nQ(S7KlfA#%F51
     P21vu4h  C2021 10 01'vmK`BO)bvS`!U0B*i=I7H,k9W7%Rn*ZkQ_QshZ\ehv@w,b[PY^gF51
     P21vu4h  C2021 10 01'j2@$yTr]hc5(o.p)D5q@VH')1xhRY2eT4iSC;keYGNhW3S)ScQ4F51
     P21vu4h  C2021 10 01(5EZ#forxmi=GX`U!!F@4hbn`t'9#5#TI_iIsF!f6hnXCIYCinI1F51
     P21vu4h  C2021 10 010=q*Ee-4B7'_`,;@v3.DkQG%tjMw];sh:^ONE?a+Z;ku\A/D?vf%F51
     P21vu4h  C2022 07 05J0R2j=`21xa_YaXtl8674LXCpQwF=WKM/M:SjTe!R':1hr,41vKyF52
     P21vu4h  C2022 07 05H]Br4s?+Pj2:=LmaZYb3:Vx((^9Zg8\$4U8.tw8d/R[6FBpY*)s:F52
     P21vu4h  C2022 07 05\UB@q6!8(]ql.%f+q*:Je*J-!)k^V_@1(a\rbtyjqlxP2]H=Qr\\F52
     P21vu4h  C2022 07 05Bj]%5A[ubFW#(O?VOF!dxQw[Sn2%PHG@+0';+C;bFC7ey@]EAHwMF52
     P21vu4h* C2022 07 26yXmE,Cm-S4NZ)YWEu#explanationhfBB,YAN'?!Zw[Mvgqju5wcF52
     P21vu4h  C2022 07 26=WlPh7KkZ7gVwFwK(bnb6j)a4$P1gmB4C0%HU9_vo\Cmb%/BgW^WF52
     P21vu4h  C2022 07 26Hhr6FH4oD8/':AS;668]R=mN^$gLUh=U7?i`=ESMmEHG:87RvCICF52
     P21vu4h ^C2022 07 27.38797221 07 16.414-22 08 18.03   ~7RBb 21.98GVNEOCP568
     P21vu4h ^C2022 07 27.38918021 07 16.398-22 08 18.08   ~7RBb 22.12GVNEOCP568
     P21vu4h ^C2022 07 27.39039021 07 16.382-22 08 18.09   ~7RBb 22.05GVNEOCP568
     P21vu4h ^C2022 08 01.37131421 06 10.620-22 10 32.10   ~81Cb 21.89GVNEOCP568
     P21vu4h ^C2022 08 01.37229321 06 10.609-22 10 32.15   ~81Cb 21.96GVNEOCP568
     P21vu4h ^C2022 08 01.37328521 06 10.595-22 10 32.14   ~81Cb 21.96GVNEOCP568

Station data:
(568) Mauna Kea  (N19.826114 W155.472200)  US/Hawaii.  Observers R.
   Wainscoat, R. Weryk. 3.6-m Canada-France-Hawaii Telescope + CCD2.24-m
   University of Hawaii reflector.
(F51) Pan-STARRS 1, Haleakala  (N20.707234 W156.255910)  US/Hawaii.
   Observers J. Bulger, T. Lowe, A. Schultz, M. Willman. Measurers K.
   Chambers, S. Chastel, T. de Boer, L. Denneau, J. Fairlamb, H. Flewelling,
   M. Huber, C.-C. Lin, E. Magnier, Y. Ramanjooloo, R. Wainscoat, R. Weryk.
   1.8-m Ritchey-Chrétien + CCD.
(F52) Pan-STARRS 2, Haleakala  (N20.707382 W156.255910)  US/Hawaii.
   Observers J. Bulger, T. Dukes, T. Lowe, A. Schultz, M. Willman. Measurers
   K. Chambers, S. Chastel, T. de Boer, L. Denneau, J. Fairlamb, H.
   Flewelling, M. Huber, C.-C. Lin, E. Magnier, Y. Ramanjooloo, R. Wainscoat,
   R. Weryk. 1.8-m Ritchey-Chrétien + CCD.

Orbital elements:  P21vu4h
   Perihelion 2018 Jan 8.02215 +/- 0.0133 TT =  0:31:54 (JD 2458126.52215)
Epoch 2022 Aug  1.0 TT = JDT 2459792.5   Ne: 0.2426           AutoNEOCP
M   9.84917345 +/- 0.0009           (J2000 ecliptic)
n   0.00591194 +/- 5.43e-7          Peri.  304.74186 +/- 0.00032
a  30.2911438 +/- 0.00185           Node   325.16299 +/- 0.00007
e   0.5724424 +/- 2.44e-5           Incl.   21.13267 +/- 0.000045
P 166.71                   H 10.8   G  0.15   U  3.1
q 12.9512065 +/- 5.44e-5    Q 47.6310811 +/- 0.00366
From 76 observations 2014 June 24-2022 Aug. 1; mean residual 0".13
Residuals in arcseconds: 
140624 F51  .06-  .05-    200628 F51  .06+  .11+    210814 F51  .16+  .00     
140624 F51  .04-  .17+    200628 F51  .01-  .00     210907 F51  .12-  .01+    
140624 F51  .12+  .16-    200628 F51  .03+  .00     210907 F51  .10+  .01-    
190628 F51  .17-  .04-    200630 F51  .10+  .03-    210907 F51  .30-  .25+    
190628 F51  .05-  .04+    200712 F51  .49-  .48-    210910 F51  .08+  .03+    
190628 F51  .00   .03+    200712 F51  .08+  .21-    210910 F51  .01+  .08-    
190628 F51  .02-  .05-    200721 F51  .13+  .04+    210910 F51  .01-  .15-    
190706 F51  .04-  .00     200721 F51  .04+  .19-    211001 F51  .10+  .01+    
190706 F51  .04+  .00     200721 F51  .00   .05-    211001 F51  .02-  .04-    
190706 F51  .09+  .02-    200809 F51  .16-  .11+    211001 F51  .16-  .29+    
200528 F51  .08-  .06+    200809 F51  .05-  .26+    211001 F51  .10-  .21+    
200528 F51  .08-  .08+    200814 F51  .00   .04+    220705 F52  .15-  .14-    
200528 F51  .10+  .04+    200814 F51  .07-  .03+    220705 F52  .10-  .12+    
200528 F51  .00   .13-    200814 F51  .01-  .13-    220705 F52  .18+  .06-    
200615 F51  .05-  .01+    200814 F51  .02+  .14-    220705 F52  .05-  .18+    
200615 F51  .12+  .00     200815 F51  .01-  .05-    220726 F52  .03-  .01-    
200615 F51  .02+  .02+    210606 F51  .01+  .15+    220726 F52  .09-  .03-    
200615 F51  .09-  .08-    210708 F51  .22+  .01+    220726 F52  .07+  .15-    
200616 F51  .13+  .11+    210708 F51  .15+  .21-    220727 568  .05-  .04-    
200616 F51  .07+  .06+    210708 F51  .30+  .14+    220727 568  .05-  .06-    
200616 F51  .18-  .14+    210806 F51  .09+  .17+    220727 568  .05-  .03-    
200620 F51  .00   .10+    210806 F51  .14-  .07+    220801 568  .06-  .03-    
200620 F51  .01-  .27+    210806 F51  .26+  .05+    220801 568  .03-  .06-    
200620 F51  .16+  .09+    210814 F51  .02-  .10+    220801 568  .04-  .02-    
200620 F51  .15-  .08-    210814 F51  .07+  .36-    
200628 F51  .03+  .16+    210814 F51  .31+  .22-    

Ephemerides (geocentric):
Date (UTC) HH   RA             Dec           delta  r     elong  mag " sig PA
---- --------  ------------   ------------  ------ ------ -----  --- --------
